Wetbulb
73.28 75.53 78.25 78.28 77.29 77.05 76.87 76.88 76.94 77.36 77.79 78.29 78.34 78.17 78.01 78.30 78.10 78.47 78.48 78.34 77.72 77.88 77.89 77.87 78.14 78.30 77.85 78.02 78.02 78.05 77.33 77.08 76.62 76.25 76.43 76.85 76.92 77.05 75.68 75.40 75.42 75.06 76.63
74.42 76.11 78.55 78.62 77.60 77.08 76.80 76.82 76.87 76.95 77.10 77.73 78.09 77.76 77.45 77.26 77.14 77.46 78.31 77.65 77.63 77.34 76.94 77.02 77.18 77.43 77.34 77.52 77.27 76.91 77.03 77.41 78.38 77.29 77.37 77.28 76.52 75.86 76.07 76.62 75.35 74.97 76.70
74.44 75.85 77.47 78.72 77.93 77.21 76.92 76.79 76.88 76.65 76.85 77.45 77.20 76.78 76.87 76.83 76.64 76.67 76.49 77.36 77.17 76.94 77.19 76.97 77.10 76.08 75.72 75.35 76.14 76.50 76.81 76.30 76.33 76.19 75.51 71.49 73.62 76.39 76.29 76.73 76.79 75.30 75.59
74.55 75.56 76.15 78.40 78.71 77.53 76.84 76.86 76.71 76.81 76.77 76.74 76.85 76.94 76.79 76.43 76.18 76.38 76.25 76.20 76.72 76.81 76.39 76.53 76.48 76.29 75.37 75.25 74.12 73.46 74.81 76.12 75.45 74.15 69.23 70.05 72.08 75.25 75.93 75.69 75.55 75.36 75.10
74.22 75.07 76.04 78.85 79.00 77.59 76.94 76.95 77.33 76.97 76.70 76.81 76.89 76.72 76.62 76.54 77.11 77.12 76.00 76.33 75.75 74.44 75.21 75.55 75.61 74.53 73.78 72.74 73.28 73.97 72.68 75.33 74.96 72.38 67.91 68.18 68.21 73.50 74.84 75.55 75.11 75.11 74.84
74.09 75.49 77.84 79.09 78.71 77.66 77.14 77.58 77.41 77.19 77.06 76.97 76.78 76.89 76.68 76.77 76.39 76.22 76.47 76.39 76.11 75.39 75.02 75.63 75.75 75.79 74.56 73.63 73.01 73.94 73.40 73.02 74.88 68.46 66.48 67.85 66.35 73.80 73.64 75.35 75.34 75.31 75.08
74.39 76.19 76.74 78.88 79.21 78.91 77.56 77.59 78.03 77.56 77.14 77.08 77.27 77.79 77.47 76.91 76.50 76.39 76.48 76.20 75.89 75.75 75.20 74.62 75.21 75.89 75.00 74.81 73.73 73.32 74.01 73.56 72.11 68.03 66.53 66.75 67.35 71.86 74.61 75.92 76.07 76.22 75.49
74.97 75.96 76.75 78.64 79.03 79.13 78.03 77.68 77.43 77.12 77.48 77.89 77.67 77.33 77.07 76.63 76.64 76.53 76.17 75.92 75.75 75.58 75.36 75.14 75.48 75.25 75.28 75.64 74.97 74.56 74.70 74.52 72.46 69.16 68.44 67.74 70.14 73.06 75.06 76.30 76.22 75.86 76.54
75.51 75.77 76.12 76.30 77.16 78.62 79.21 78.51 77.93 77.47 77.69 77.93 77.59 76.96 76.68 76.77 76.63 75.95 76.09 76.11 75.58 75.53 74.97 75.14 74.95 75.25 75.34 75.03 75.36 75.17 74.36 74.14 69.02 68.92 69.06 68.14 70.80 72.43 73.66 76.05 75.91 76.29 76.35
74.77 75.07 74.76 75.22 74.94 75.69 76.41 78.28 78.07 77.96 77.72 77.37 77.21 76.77 76.82 76.77 76.77 76.39 77.02 76.57 75.97 75.69 75.81 75.39 75.69 75.41 75.63 75.63 75.22 75.14 74.99 74.37 69.11 69.17 70.34 68.81 70.04 71.20 73.39 76.40 76.20 76.62 76.50
72.93 73.16 73.68 73.74 73.96 74.08 74.60 76.01 77.77 77.41 77.77 77.45 76.99 76.84 77.01 73.66 73.86 75.10 76.15 76.15 75.84 75.25 74.89 74.10 75.22 75.49 75.41 75.35 75.22 75.17 75.30 72.17 69.83 69.13 68.66 70.26 70.98 72.02 73.45 76.54 76.82 76.87 76.91
70.25 71.46 72.92 73.71 73.76 73.71 75.30 74.41 74.58 74.52 75.02 74.48 74.25 74.48 74.36 73.32 71.30 72.29 75.13 76.12 76.32 75.08 75.08 74.80 74.61 74.78 75.09 72.13 72.35 74.60 72.82 71.86 70.22 70.01 69.66 70.85 71.93 72.77 74.58 76.75 77.46 77.05 76.68
70.17 71.84 72.28 73.22 73.35 73.13 73.74 73.57 73.74 73.57 73.48 72.96 73.42 73.28 73.12 72.58 70.66 69.64 72.10 73.32 72.36 74.48 71.17 72.45 71.81 71.43 71.17 71.34 71.35 71.33 71.50 71.58 70.42 71.08 72.18 72.77 73.25 73.71 75.00 77.93 77.44 76.73 76.12
69.72 71.11 72.36 72.75 72.57 72.70 73.22 73.84 73.66 73.37 73.65 72.98 72.94 72.90 71.00 68.41 69.90 70.96 71.50 71.25 69.82 71.48 70.98 70.16 68.64 69.26 69.49 70.61 71.21 71.40 71.29 72.12 71.26 70.72 70.85 74.25 74.25 74.75 75.04 77.60 77.24 76.51 76.73
70.10 71.20 72.13 72.23 71.70 72.65 73.30 73.59 73.40 73.57 73.77 72.70 73.12 72.27 71.37 70.34 70.80 71.37 71.60 71.03 70.80 70.75 71.50 71.66 70.79 69.73 69.30 69.06 70.81 71.20 71.23 70.81 72.02 71.92 71.26 74.24 76.23 75.83 75.36 77.60 77.00 76.00 75.73
70.70 70.64 71.89 72.24 72.72 73.09 72.69 73.11 72.89 73.19 73.19 73.13 72.92 72.68 72.13 71.68 71.43 72.45 71.22 71.23 71.05 70.80 72.57 72.25 71.75 70.83 71.20 71.36 70.18 70.79 71.66 70.95 71.03 70.99 71.51 72.40 76.74 76.69 76.92 77.68 77.45 76.64 75.79
70.98 70.21 69.01 71.43 73.32 72.83 72.34 72.74 71.91 73.11 72.61 73.03 72.72 73.21 72.20 71.84 71.73 71.63 71.28 69.75 69.77 70.76 71.60 72.05 72.08 71.74 70.64 72.29 71.64 70.66 70.98 71.00 71.72 71.37 71.01 70.89 72.65 76.46 76.61 77.37 77.58 77.37 77.15
70.39 69.62 69.42 72.82 72.12 71.46 71.34 71.46 71.98 72.59 72.13 72.38 71.44 72.98 72.68 71.91 71.53 69.84 70.90 70.83 71.29 70.87 71.62 71.30 71.12 69.45 68.93 69.14 69.93 70.57 70.93 71.51 71.34 71.34 71.46 71.63 72.26 72.71 74.49 76.33 76.78 77.26 77.38
70.67 70.20 70.21 71.55 71.79 71.41 71.02 72.23 72.35 72.20 72.22 72.16 72.48 72.73 72.36 72.63 72.33 70.23 69.76 71.18 71.85 70.79 70.74 71.33 69.29 69.13 66.46 66.46 68.84 71.71 71.07 69.78 70.18 71.28 70.83 72.18 72.52 73.05 73.04 75.95 76.55 76.94 77.32
70.09 70.72 71.17 71.94 71.82 71.14 71.53 72.59 71.92 71.86 71.86 72.73 73.05 72.95 72.69 71.51 72.84 69.58 70.54 70.91 71.72 70.38 70.59 69.68 69.07 68.42 67.62 68.66 69.55 70.09 70.01 70.60 70.05 69.50 70.91 71.23 71.75 73.18 73.24 73.83 75.24 76.09 77.37
70.69 70.64 71.20 70.80 70.66 71.81 71.51 70.98 70.11 70.88 71.42 71.37 72.26 73.75 72.16 72.26 73.50 71.30 70.97 71.11 71.57 69.96 70.54 69.88 69.52 67.99 67.63 70.31 66.22 67.31 68.14 69.87 69.71 70.10 70.24 69.75 70.31 70.96 70.89 72.69 73.67 74.89 75.03
70.32 70.72 70.25 70.58 70.56 71.74 72.34 71.34 70.93 70.61 71.24 70.84 71.70 72.71 72.63 72.76 73.80 72.74 71.16 71.51 71.88 71.01 70.89 70.31 69.92 69.14 69.43 70.00 66.80 65.40 63.44 65.91 67.09 69.33 70.17 70.24 70.14 70.70 71.10 71.24 71.37 73.15 73.39
69.66 69.78 69.04 68.69 71.15 71.50 71.96 71.92 71.28 71.36 70.93 70.73 70.84 71.82 73.07 72.06 73.54 72.96 71.34 71.72 71.48 68.90 68.90 68.79 67.77 69.47 67.43 69.61 69.09 65.70 63.47 62.94 63.02 67.25 67.60 68.18 68.19 68.30 70.44 71.00 71.70 72.37 72.48
69.69 70.60 70.37 70.18 71.42 71.86 72.29 71.79 70.25 69.36 68.33 69.25 69.26 70.65 72.13 72.35 72.38 73.20 72.70 72.51 71.50 71.55 70.18 71.29 70.44 69.55 69.09 66.86 68.37 70.22 68.66 66.73 61.70 60.22 64.62 66.84 68.10 68.57 68.87 69.25 71.63 72.05 72.03
69.40 69.61 71.10 70.45 70.56 71.57 72.53 72.09 71.02 69.22 68.75 69.86 69.79 70.28 70.90 71.83 72.75 73.15 72.02 73.00 71.82 71.12 70.22 70.26 70.36 70.63 69.27 68.37 67.36 67.96 68.39 68.60 67.18 62.57 61.45 64.34 66.37 66.80 68.57 68.88 70.31 71.10 71.81
67.66 66.52 66.33 68.70 68.34 71.28 72.18 71.45 71.14 69.80 69.18 69.45 69.47 70.01 70.26 70.94 71.21 72.00 72.89 72.26 72.02 71.66 71.88 71.35 70.41 70.87 70.74 69.89 69.59 68.44 68.08 65.65 65.95 66.54 65.63 64.99 64.24 66.04 69.40 69.97 69.27 69.54 71.66
MSLP
1014.84 1014.84 1014.87 1015.09 1015.17 1015.28 1015.47 1015.69 1015.92 1016.27 1016.49 1016.59 1016.77 1017.06 1017.24 1017.27 1017.55 1017.79 1018.02 1018.17 1018.39 1018.52 1018.36 1018.36 1018.48 1018.53 1018.75 1018.84 1018.91 1018.95 1019.13 1019.29 1019.17 1019.23 1019.44 1019.58 1019.74 1019.69 1019.84 1019.83 1019.90 1019.87 1019.87
1014.15 1014.72 1014.87 1015.07 1015.28 1015.40 1015.65 1015.92 1016.07 1016.37 1016.50 1016.67 1017.01 1017.22 1017.39 1017.61 1017.68 1017.89 1017.99 1018.27 1018.49 1018.53 1018.55 1018.65 1018.65 1018.88 1019.02 1019.23 1019.44 1019.46 1019.36 1019.41 1019.36 1019.41 1019.63 1019.69 1019.74 1019.86 1019.87 1020.10 1020.25 1020.30 1020.25
1014.12 1014.72 1014.89 1015.04 1015.39 1015.56 1015.86 1016.05 1016.24 1016.39 1016.59 1016.71 1017.01 1017.31 1017.44 1017.61 1017.83 1017.99 1018.20 1018.47 1018.65 1018.68 1018.69 1018.76 1018.99 1019.06 1019.11 1019.42 1019.64 1019.79 1019.77 1019.64 1019.87 1019.97 1019.90 1019.98 1020.12 1020.09 1020.12 1020.16 1020.46 1020.56 1020.61
1014.00 1014.68 1014.98 1015.16 1015.39 1015.66 1015.94 1016.22 1016.40 1016.55 1016.76 1016.90 1017.09 1017.33 1017.50 1017.70 1017.92 1018.11 1018.42 1018.65 1018.81 1018.86 1018.95 1018.94 1019.09 1019.18 1019.08 1019.09 1019.47 1019.81 1019.97 1019.94 1020.02 1020.29 1020.61 1020.30 1020.12 1020.44 1020.32 1020.37 1020.69 1020.79 1020.86
1014.19 1014.72 1015.04 1015.25 1015.51 1015.81 1016.03 1016.30 1016.55 1016.78 1017.02 1017.13 1017.27 1017.49 1017.72 1017.89 1018.04 1018.27 1018.54 1018.76 1018.92 1019.06 1019.06 1018.98 1018.91 1019.15 1019.14 1019.21 1019.38 1019.47 1019.79 1019.95 1020.07 1020.18 1020.51 1020.68 1020.29 1020.40 1020.60 1020.63 1020.87 1020.96 1021.04
1014.45 1014.81 1015.02 1015.32 1015.51 1015.85 1016.10 1016.32 1016.58 1016.86 1017.07 1017.24 1017.45 1017.62 1017.81 1017.98 1018.17 1018.38 1018.55 1018.72 1018.81 1018.99 1018.96 1018.88 1018.95 1019.10 1019.13 1019.29 1019.38 1019.47 1019.72 1019.87 1020.16 1020.36 1020.61 1020.63 1020.82 1020.29 1020.70 1020.75 1020.93 1021.14 1021.20
1014.56 1014.83 1015.13 1015.42 1015.61 1015.88 1016.17 1016.49 1016.68 1016.84 1017.21 1017.41 1017.44 1017.57 1017.78 1017.92 1018.05 1018.17 1018.29 1018.47 1018.76 1018.90 1018.92 1018.79 1018.80 1018.92 1019.21 1019.29 1019.50 1019.72 1019.74 1019.93 1020.29 1020.36 1020.80 1020.81 1020.73 1020.37 1020.72 1020.98 1021.03 1021.30 1021.34
1014.22 1014.83 1015.20 1015.48 1015.71 1015.90 1016.26 1016.57 1016.82 1017.05 1017.23 1017.26 1017.39 1017.58 1017.76 1017.83 1017.82 1017.93 1018.11 1018.29 1018.48 1018.69 1018.77 1018.62 1018.61 1018.79 1018.96 1019.09 1019.31 1019.62 1019.47 1019.86 1020.15 1020.38 1020.64 1020.72 1020.62 1020.38 1020.77 1020.88 1021.11 1021.53 1021.37
1014.11 1014.75 1015.20 1015.41 1015.76 1016.00 1016.19 1016.47 1016.81 1017.05 1017.13 1017.30 1017.50 1017.66 1017.77 1017.83 1017.85 1017.94 1018.06 1018.12 1018.32 1018.59 1018.71 1018.57 1018.58 1018.69 1018.90 1018.93 1018.97 1019.20 1019.47 1019.85 1020.31 1020.42 1020.56 1020.84 1020.64 1020.54 1020.83 1020.85 1021.26 1021.47 1021.57
1014.57 1014.72 1015.10 1015.45 1015.72 1016.02 1016.21 1016.40 1016.70 1016.95 1017.09 1017.41 1017.62 1017.74 1017.70 1017.67 1017.79 1017.91 1018.05 1018.15 1018.29 1018.48 1018.57 1018.61 1018.63 1018.76 1018.86 1019.03 1018.83 1018.88 1019.21 1019.77 1020.12 1020.21 1020.36 1020.54 1020.72 1020.65 1020.93 1021.02 1021.29 1021.49 1021.63
1015.04 1015.20 1015.32 1015.59 1015.84 1016.15 1016.28 1016.36 1016.61 1016.91 1017.13 1017.36 1017.56 1017.58 1017.55 1017.74 1017.77 1017.89 1018.00 1018.12 1018.24 1018.39 1018.50 1018.60 1018.61 1018.75 1018.81 1018.98 1018.79 1018.92 1019.20 1019.84 1020.20 1020.22 1020.26 1020.34 1020.52 1020.62 1020.92 1021.01 1021.13 1021.40 1021.54
1014.92 1015.20 1015.48 1015.59 1015.82 1016.06 1016.10 1016.20 1016.52 1016.80 1017.06 1017.22 1017.45 1017.42 1017.47 1017.77 1017.93 1018.01 1017.96 1017.95 1018.02 1018.19 1018.35 1018.68 1018.60 1018.81 1018.95 1019.07 1019.14 1019.05 1019.39 1019.76 1020.03 1019.99 1020.13 1020.16 1020.27 1020.47 1020.64 1020.74 1021.05 1021.37 1021.49
1013.92 1014.71 1015.13 1015.49 1015.65 1015.84 1015.88 1016.20 1016.42 1016.75 1017.01 1017.23 1017.30 1017.30 1017.30 1017.79 1017.79 1017.84 1017.82 1017.91 1018.08 1018.11 1018.40 1018.39 1018.53 1018.71 1018.96 1019.21 1019.37 1019.30 1019.27 1019.59 1019.75 1019.95 1019.74 1019.98 1020.21 1020.41 1020.51 1020.56 1020.99 1021.24 1021.34
1013.70 1014.03 1014.53 1014.90 1015.36 1015.59 1015.70 1015.94 1016.16 1016.64 1016.78 1017.04 1017.13 1017.19 1017.48 1017.83 1017.96 1017.93 1018.11 1018.34 1018.44 1018.46 1018.56 1018.63 1018.72 1018.75 1019.00 1019.22 1019.41 1019.45 1019.28 1019.57 1019.79 1019.50 1019.48 1019.46 1019.85 1020.34 1020.44 1020.41 1020.75 1021.04 1021.23
1013.27 1013.62 1013.93 1014.45 1014.92 1015.19 1015.55 1015.88 1015.97 1016.19 1016.41 1016.66 1016.70 1016.90 1017.18 1017.71 1017.94 1018.02 1018.12 1018.42 1018.44 1018.52 1018.52 1018.52 1018.46 1018.59 1018.78 1018.96 1019.05 1019.18 1019.28 1019.58 1019.54 1019.62 1019.45 1019.47 1019.60 1020.06 1020.31 1020.43 1020.64 1020.98 1021.17
1012.57 1013.04 1013.56 1013.92 1014.02 1014.56 1015.28 1015.52 1015.66 1015.73 1015.91 1016.38 1016.35 1016.48 1016.88 1017.40 1017.43 1016.81 1017.79 1018.07 1018.17 1018.31 1018.24 1017.97 1017.99 1018.14 1018.42 1018.44 1018.86 1018.90 1018.87 1019.10 1019.21 1019.19 1019.17 1019.18 1019.27 1019.67 1019.95 1020.14 1020.50 1020.81 1021.03
1011.83 1012.39 1013.13 1013.39 1013.52 1014.11 1014.71 1014.86 1015.23 1015.21 1015.40 1015.71 1015.90 1016.09 1016.59 1016.95 1016.91 1017.25 1017.68 1018.00 1018.14 1017.82 1017.47 1017.34 1017.69 1017.88 1018.15 1018.12 1018.34 1018.61 1018.78 1018.71 1018.59 1018.85 1019.03 1019.13 1019.38 1019.62 1019.84 1020.01 1020.24 1020.52 1020.76
1011.59 1012.19 1012.83 1013.07 1013.44 1013.72 1014.28 1014.55 1014.78 1015.06 1015.30 1015.36 1015.71 1015.81 1016.31 1016.47 1016.77 1017.20 1017.50 1017.52 1017.86 1017.53 1017.26 1017.60 1018.11 1018.26 1018.47 1018.50 1018.19 1018.05 1018.16 1018.33 1018.52 1018.59 1018.96 1018.96 1019.19 1019.32 1019.53 1019.70 1019.86 1020.07 1020.20
1010.86 1011.58 1012.42 1012.65 1013.02 1013.50 1013.94 1014.45 1014.60 1014.80 1015.02 1015.22 1015.44 1015.71 1016.00 1016.21 1016.55 1016.92 1017.09 1016.97 1017.23 1017.55 1017.49 1017.88 1018.17 1018.16 1018.41 1018.58 1018.43 1018.08 1018.09 1018.57 1018.32 1018.42 1018.61 1018.85 1018.91 1018.99 1019.26 1019.34 1019.57 1019.87 1020.12
1011.15 1011.34 1011.89 1012.55 1012.95 1013.18 1013.85 1014.48 1014.85 1014.98 1014.92 1015.19 1015.43 1015.67 1015.94 1016.08 1016.38 1016.77 1016.87 1016.71 1016.93 1017.46 1017.61 1017.95 1017.98 1018.16 1018.41 1018.44 1018.46 1018.13 1018.09 1017.96 1018.08 1018.26 1018.32 1018.29 1018.42 1018.53 1018.77 1019.13 1019.21 1019.30 1019.35
1010.79 1011.32 1011.67 1012.11 1012.55 1013.15 1013.79 1014.36 1014.88 1015.14 1015.07 1015.33 1015.45 1015.64 1015.88 1015.79 1015.96 1016.36 1016.57 1016.73 1016.84 1017.11 1017.29 1017.72 1018.03 1018.22 1018.41 1018.24 1018.59 1018.56 1018.36 1018.18 1017.95 1017.88 1017.89 1017.93 1018.08 1018.34 1018.55 1018.57 1018.77 1018.79 1018.82
1010.32 1010.60 1011.22 1011.62 1012.35 1012.56 1013.01 1013.42 1014.17 1014.66 1014.94 1014.95 1015.00 1015.26 1015.46 1015.47 1015.50 1015.85 1016.24 1016.40 1016.60 1016.93 1017.29 1017.77 1017.77 1017.80 1017.91 1018.09 1018.34 1018.79 1018.70 1018.64 1018.36 1017.99 1017.79 1017.75 1017.91 1017.92 1017.97 1017.97 1018.46 1018.58 1018.42
1010.18 1010.58 1010.90 1011.09 1011.75 1012.23 1012.60 1013.20 1014.10 1014.60 1014.99 1015.14 1015.16 1015.29 1015.17 1015.33 1015.21 1015.37 1015.82 1015.86 1016.23 1016.72 1017.06 1017.50 1017.39 1017.22 1017.56 1017.72 1018.00 1018.38 1018.64 1018.61 1018.60 1018.23 1018.13 1017.87 1018.04 1017.93 1017.60 1017.64 1017.68 1017.55 1017.77
1010.41 1010.87 1010.20 1010.71 1011.20 1011.89 1012.38 1012.90 1013.48 1013.87 1014.58 1014.60 1014.66 1014.86 1014.93 1014.99 1015.00 1014.86 1015.34 1015.59 1015.78 1016.09 1016.53 1016.68 1016.81 1016.95 1017.27 1017.72 1018.02 1018.06 1018.08 1018.33 1018.66 1018.84 1018.62 1018.33 1018.23 1017.92 1017.65 1017.39 1017.26 1017.41 1017.51
1010.33 1011.36 1012.36 1011.50 1011.82 1012.02 1012.27 1012.61 1013.28 1013.67 1013.95 1014.15 1014.37 1014.67 1014.93 1014.80 1014.73 1014.78 1015.18 1015.22 1015.63 1015.87 1016.12 1016.31 1016.50 1016.71 1016.97 1017.16 1017.40 1017.65 1017.86 1018.02 1018.33 1018.73 1018.74 1018.43 1018.09 1017.58 1017.18 1016.91 1016.74 1016.72 1017.01
1009.89 1010.38 1011.44 1013.05 1011.88 1012.47 1012.22 1012.49 1012.87 1013.17 1013.80 1014.22 1014.34 1014.44 1014.75 1014.77 1014.70 1014.66 1014.78 1014.99 1015.11 1015.42 1015.79 1015.99 1016.18 1016.23 1016.47 1016.59 1016.63 1016.95 1017.02 1017.44 1017.88 1018.05 1017.96 1018.16 1017.77 1017.34 1017.29 1016.71 1016.86 1016.13 1015.89
Wind_Speed
10 11 16 17 17 16 15 15 16 17 17 18 19 18 19 18 18 17 16 16 15 14 16 17 17 18 18 17 15 16 17 15 17 18 17 15 14 15 14 14 13 9 14
14 13 17 18 18 17 16 15 16 16 17 17 17 17 17 17 17 15 15 16 14 13 15 15 17 18 19 16 15 14 15 13 14 16 15 14 11 15 14 11 13 9 12
16 13 13 18 18 18 15 15 15 15 16 16 16 15 15 15 14 13 13 14 13 12 13 13 14 15 18 16 13 12 12 13 11 13 14 6 8 15 13 12 12 12 11
15 12 12 16 19 18 17 16 15 16 16 15 15 14 13 12 12 12 12 11 11 10 10 11 12 11 13 15 12 8 7 9 10 10 4 3 8 11 12 13 10 10 11
14 11 12 16 19 19 18 17 16 16 16 15 15 13 12 11 10 11 11 11 10 7 8 9 10 8 8 8 10 8 5 5 8 7 6 2 4 9 7 11 9 10 10
13 10 15 17 20 19 18 17 17 17 16 15 13 12 12 11 10 10 10 10 10 9 8 9 11 11 9 8 7 7 7 6 7 5 4 5 3 11 6 8 9 10 10
12 11 13 17 17 18 18 17 16 16 15 13 13 13 12 11 10 10 10 9 8 9 10 11 11 12 9 9 6 6 7 6 4 5 4 4 4 8 8 6 10 11 10
17 12 12 17 17 17 18 17 16 15 14 14 14 12 12 11 11 10 9 9 9 9 10 10 10 10 10 11 8 8 10 10 7 6 1 1 6 8 6 10 9 9 10
16 14 11 11 14 18 17 18 17 16 16 14 13 12 11 11 10 10 9 9 9 9 9 9 8 8 7 9 11 11 11 11 4 3 4 3 5 5 3 8 9 10 10
12 11 11 9 8 7 9 16 15 15 14 13 12 11 11 11 11 10 8 8 8 9 8 8 8 7 7 7 9 10 11 11 4 4 3 3 7 5 6 9 10 11 10
7 9 9 9 8 6 6 10 14 16 14 13 12 12 9 3 5 7 8 9 9 8 7 7 8 8 8 9 10 10 11 3 4 3 2 8 9 8 12 13 13 12 12
10 8 9 9 10 8 8 6 6 6 5 5 5 6 4 5 3 4 6 9 10 10 9 8 7 8 9 3 3 8 2 5 4 4 4 12 13 15 16 16 13 14 12
18 12 13 11 10 10 8 4 4 3 3 3 6 5 5 4 4 3 3 1 1 8 3 4 4 2 3 4 3 4 4 4 3 4 7 14 15 17 18 17 17 16 14
16 16 14 12 10 10 5 6 6 4 4 3 4 6 4 3 3 3 1 1 2 2 3 3 2 4 4 5 5 5 5 4 2 3 5 13 15 19 21 19 18 17 16
16 14 15 12 11 10 8 5 6 6 5 5 5 7 4 4 4 3 2 2 2 1 2 3 4 4 5 5 5 6 5 5 9 5 5 18 18 20 22 20 18 18 17
17 15 16 15 14 12 8 9 7 6 5 6 6 7 6 4 5 5 4 4 3 3 2 3 4 4 6 4 6 6 7 6 8 7 5 6 16 19 20 18 19 18 18
15 14 14 13 13 14 12 9 6 6 5 7 6 5 6 7 6 6 4 4 4 4 4 4 2 2 3 4 6 6 5 7 6 8 5 4 5 16 18 19 20 18 19
12 13 8 12 11 11 10 6 5 4 4 4 4 4 7 6 6 5 4 4 3 3 3 2 1 1 1 2 3 3 3 3 5 8 6 6 5 6 14 21 20 20 21
16 15 12 10 11 11 7 5 6 6 5 3 4 4 6 6 8 5 4 4 5 4 3 2 3 2 3 2 4 3 3 5 7 7 8 8 9 8 6 15 20 20 22
9 13 14 10 11 9 6 5 3 3 3 3 3 3 6 5 7 5 4 3 4 4 3 3 4 2 2 2 2 3 1 3 4 5 8 8 8 9 9 9 10 12 21
12 14 15 14 12 9 6 5 4 4 3 1 3 4 6 6 6 6 4 4 5 4 5 5 3 5 3 2 1 2 2 5 4 4 4 5 7 7 7 8 7 7 7
18 18 16 15 12 10 8 4 4 3 2 3 3 4 6 8 7 7 6 5 5 4 6 6 5 3 3 4 3 2 0 2 2 3 1 4 5 4 7 11 7 8 7
16 18 17 16 14 11 8 6 4 4 2 2 2 3 4 5 6 8 7 5 5 4 5 5 4 3 1 2 3 3 1 4 1 1 3 2 3 1 3 3 9 11 10
6 10 15 13 14 11 10 9 6 6 5 4 4 3 4 7 7 7 7 6 6 4 4 3 3 3 3 3 1 4 2 2 2 3 2 2 4 4 5 3 4 5 7
10 9 9 2 5 7 10 10 8 5 4 3 3 5 4 4 5 7 7 7 5 4 4 4 3 4 3 3 3 3 3 2 2 3 2 2 1 4 2 3 4 4 4
8 8 10 15 5 4 8 8 11 10 8 5 4 4 3 3 4 6 6 5 6 6 5 5 5 5 4 3 3 4 4 4 3 3 3 4 4 3 4 4 2 4 4
Wind_Direction
164 162 158 147 143 139 136 127 121 120 116 112 109 108 106 103 104 103 105 102 99 99 96 100 101 96 93 90 90 96 103 105 104 103 104 106 115 109 103 105 106 101 108
146 157 157 153 148 144 141 134 125 124 118 114 113 114 114 111 107 109 109 111 113 106 100 101 104 101 96 91 90 95 101 102 102 106 99 84 114 120 115 104 116 102 96
145 157 161 151 150 146 138 135 132 128 122 115 116 118 115 115 120 123 119 118 127 122 120 116 112 110 110 101 91 85 102 109 117 114 111 103 66 116 110 102 102 114 105
142 153 158 156 151 148 146 145 140 132 127 121 119 118 122 127 134 137 135 133 130 126 127 127 126 135 126 126 116 92 93 133 132 123 83 101 108 90 117 114 119 120 119
141 150 161 159 150 153 152 150 145 139 135 134 131 131 135 141 145 143 146 149 147 143 150 152 156 179 190 181 138 147 161 159 158 159 152 159 119 116 99 128 135 136 131
141 145 156 159 154 157 157 154 149 147 147 149 148 152 156 164 163 158 160 165 167 171 170 172 177 180 188 177 171 160 191 177 168 192 161 166 215 129 121 149 152 155 147
143 150 151 158 158 157 162 159 156 155 157 159 163 164 161 169 169 174 180 183 181 180 186 196 194 193 195 207 194 181 192 194 173 233 130 158 167 132 149 191 173 163 160
144 149 154 153 159 161 161 164 165 162 163 171 168 168 171 177 181 186 188 188 181 181 187 195 186 199 197 216 224 214 215 186 195 217 165 166 164 128 162 186 178 188 171
146 150 153 154 160 164 164 164 163 168 176 178 174 172 182 189 192 196 194 189 176 177 187 192 190 188 185 209 217 221 213 195 172 188 208 210 189 149 196 196 194 191 184
149 151 150 154 151 155 155 157 162 169 176 180 179 180 190 200 198 201 186 188 182 180 190 194 190 188 178 194 216 214 212 182 201 193 211 186 219 214 216 225 198 202 202
142 151 154 157 153 158 154 169 171 177 184 184 186 190 198 185 217 212 179 187 187 189 195 204 196 190 185 196 217 209 208 142 187 220 209 222 207 206 217 225 204 208 210
158 174 168 165 167 165 170 177 170 181 186 178 185 200 189 178 195 192 210 201 194 196 203 206 209 196 196 198 236 222 170 162 186 220 204 216 218 215 211 214 203 211 213
171 171 176 175 178 176 177 171 175 186 184 186 193 201 194 156 201 214 205 216 117 200 202 210 219 211 197 196 223 228 209 168 191 209 233 224 218 219 212 207 209 209 210
169 182 175 181 184 184 171 177 180 180 195 189 194 202 179 174 210 233 210 192 198 187 195 231 242 248 234 225 211 228 225 181 192 256 257 240 231 227 224 214 208 212 213
173 183 178 180 177 182 174 179 184 195 199 189 192 201 189 169 171 176 204 201 209 151 205 234 230 235 234 225 214 205 215 190 201 229 232 236 229 223 224 221 214 216 217
178 174 173 179 175 168 170 188 198 194 197 187 196 198 191 165 170 179 191 203 193 181 229 206 217 219 227 207 199 213 230 215 207 208 211 223 218 218 222 221 219 219 222
178 164 174 172 165 167 174 191 178 193 171 184 192 197 166 170 175 173 168 179 214 150 196 237 234 234 225 242 222 178 194 221 224 186 181 177 211 220 224 220 219 219 222
158 163 170 178 174 166 174 173 171 166 188 182 184 178 164 171 159 176 172 185 195 193 166 268 187 309 309 268 240 232 223 186 177 185 183 183 189 206 219 218 219 219 221
174 165 173 180 178 178 161 159 160 170 167 173 163 183 166 176 158 176 195 195 158 187 197 191 216 194 207 223 262 256 236 176 186 193 188 190 194 198 206 218 216 223 228
180 167 169 179 185 171 143 142 145 160 170 162 167 187 192 189 169 184 192 204 177 176 170 181 216 185 212 206 286 263 319 301 177 189 203 197 201 198 197 212 219 220 223
169 170 178 177 183 163 163 157 150 180 170 173 198 212 204 200 182 183 228 209 175 176 192 194 182 201 208 149 90 323 305 265 258 207 209 197 193 204 214 211 212 214 227
175 176 178 186 184 178 179 151 132 159 178 162 170 234 199 200 183 189 194 198 182 157 161 191 200 177 182 194 145 156 282 334 341 300 198 172 166 180 215 214 204 218 217
182 182 183 187 182 185 160 129 105 95 58 141 190 203 203 207 203 197 184 187 154 157 181 169 200 183 190 184 173 131 83 224 302 250 259 160 148 245 258 240 215 213 210
195 217 197 185 178 183 160 167 160 168 163 202 182 182 199 192 218 203 181 179 178 171 171 206 170 206 139 210 145 222 237 154 179 343 315 282 243 236 233 235 219 220 237
85 33 353 74 180 172 181 177 181 171 168 178 161 185 207 225 217 222 174 178 180 175 179 203 229 209 180 170 164 178 212 176 127 144 255 259 223 244 235 214 218 210 203
134 91 5 290 70 300 186 176 187 185 173 167 187 183 199 233 242 225 195 185 182 183 195 211 222 235 201 211 195 186 178 170 180 177 178 237 236 243 219 201 220 182 165